Dewpoint
52 51 51 50 49 50 49 49 49 49 49 49 49 49 51 52 52 41 37 42 42 53 57 53 53 51 48 45 43 37 28 27 31 33 31 31 29 27 25 28 32 33 35 40 49
52 52 51 51 50 49 49 49 49 49 48 48 48 49 49 50 43 35 50 55 56 52 52 51 50 50 44 43 42 41 35 32 31 32 32 31 29 28 29 30 33 33 45 48 52
53 53 52 51 50 50 49 49 49 49 49 49 48 48 48 45 37 40 52 52 55 52 45 46 46 48 49 43 40 40 39 33 31 31 32 33 31 31 32 32 32 34 43 51 51
53 53 53 52 50 50 50 49 49 49 49 48 48 48 48 38 28 48 50 49 51 47 47 48 44 44 46 47 41 37 37 38 34 32 34 35 32 30 32 34 34 36 41 50 51
54 53 53 52 51 51 50 50 49 49 49 48 48 48 42 32 31 34 48 41 39 42 46 45 43 43 43 45 43 37 36 36 35 33 33 35 35 30 33 34 35 34 43 49 50
56 54 53 52 51 51 51 50 49 49 49 48 48 47 38 31 30 33 33 36 35 35 36 41 48 44 42 44 43 39 37 35 35 33 33 33 34 33 35 37 35 33 42 47 48
57 55 54 52 51 51 51 49 49 49 48 49 48 40 35 31 31 32 34 33 34 33 32 35 40 49 46 43 43 43 38 34 34 35 33 34 32 32 31 36 33 33 36 44 47
57 57 55 54 51 50 50 49 49 48 48 48 47 38 33 33 33 34 34 34 33 32 31 33 35 40 48 46 40 35 39 36 35 34 35 32 31 32 31 33 36 34 33 39 44
58 57 56 53 52 50 49 48 48 48 47 45 39 37 31 35 30 32 35 33 36 35 36 34 31 36 45 43 39 36 30 33 34 33 34 33 31 30 31 30 35 35 32 34 40
60 58 57 54 53 48 47 47 47 44 37 32 32 37 35 29 30 34 35 35 32 31 29 33 32 37 42 40 33 30 30 26 28 31 33 33 31 31 29 27 32 34 34 32 37
60 59 57 55 51 48 44 38 30 27 29 23 24 33 25 27 17 15 16 25 27 27 26 28 31 34 36 39 37 31 28 27 26 29 32 33 31 31 29 26 28 33 33 33 32
60 59 58 54 51 47 42 34 29 27 22 23 20 18 19 20 22 25 28 16 14 13 20 26 25 26 32 33 37 35 32 26 26 27 30 31 31 31 30 28 24 28 33 33 32
59 58 57 52 50 46 39 36 36 33 24 17 16 20 25 25 24 27 27 25 21 16 12 14 22 23 24 29 32 34 34 31 32 28 33 31 29 28 30 29 25 23 29 33 33
58 57 54 51 45 43 39 38 35 35 23 17 19 26 29 29 27 29 27 28 26 22 18 13 12 19 21 24 30 31 36 34 36 34 32 34 28 28 27 27 27 25 23 25 33
57 57 52 47 42 40 38 37 36 37 18 8 22 29 20 19 12 19 23 25 19 19 21 22 14 14 19 21 23 33 35 34 35 37 32 28 26 26 28 27 28 26 28 27 28
56 54 50 44 42 41 38 34 37 23 17 10 23 24 12 9 8 8 9 20 21 20 21 20 24 20 22 27 22 25 34 35 36 34 31 32 29 24 25 25 26 28 26 27 26
55 53 48 43 40 42 36 32 24 20 10 5 11 10 9 6 5 7 15 17 12 15 18 18 19 23 20 30 29 24 32 30 27 28 28 30 28 27 26 26 24 25 25 26 27
54 51 47 44 44 38 33 30 20 20 16 8 7 9 7 9 9 14 13 9 8 9 17 19 14 14 20 23 30 22 33 27 25 21 28 30 27 27 28 28 28 27 27 26 26
49 46 43 44 43 37 33 24 23 20 17 8 9 8 8 15 19 16 12 7 11 20 23 23 16 21 19 22 30 28 27 36 32 32 23 21 24 27 28 29 28 30 29 28 28
44 41 40 43 42 39 32 25 22 23 17 13 11 10 14 11 14 21 17 9 10 20 33 26 21 16 18 26 27 28 28 30 31 27 26 18 22 23 24 29 30 31 30 30 31
40 35 41 44 41 35 27 25 23 27 22 15 12 12 12 15 18 19 21 19 20 22 30 33 26 15 22 26 23 28 29 28 34 30 28 22 21 25 24 27 28 30 32 31 30
38 32 42 41 32 33 27 26 26 26 22 19 19 17 12 11 19 20 19 21 24 23 20 25 30 20 18 22 32 32 32 32 28 29 28 33 19 21 23 27 28 29 30 32 33
34 34 41 39 27 28 30 28 26 25 20 19 16 17 16 17 21 23 22 21 27 22 26 24 26 21 18 24 29 30 28 28 32 28 31 27 22 25 24 25 27 28 28 30 32
33 29 33 34 34 30 29 26 26 28 24 22 19 18 18 18 21 25 21 21 19 19 24 27 24 21 19 24 27 25 27 29 31 27 27 26 22 23 23 26 27 28 28 27 30
35 32 29 27 29 29 32 28 25 24 23 22 19 18 19 23 15 14 14 20 19 19 24 26 16 16 16 14 20 26 27 29 27 30 31 30 29 19 22 26 26 28 28 27 27
32 33 35 33 30 29 29 26 25 25 27 19 19 17 18 21 15 14 14 17 20 20 25 31 18 15 10 8 16 17 18 27 28 27 28 30 26 22 21 25 24 26 27 27 27
36 36 34 32 31 30 27 23 27 29 28 22 17 17 15 14 12 14 17 18 18 23 25 23 19 15 8 6 9 10 20 18 27 29 29 30 29 21 20 24 27 27 28 29 28
Lifted_Index
15 15 15 16 16 16 16 16 16 16 16 16 16 15 14 14 13 12 11 9 9 8 6 4 3 3 4 5 6 7 7 6 6 5 5 6 7 8 8 8 7 6 5 5 4
15 15 15 16 16 16 16 16 16 16 16 15 15 15 15 14 13 11 9 7 7 7 6 4 3 3 4 5 5 6 6 6 6 5 5 6 7 8 8 7 7 6 5 4 3
14 14 14 15 15 16 16 16 16 15 15 15 15 15 15 14 12 8 6 6 6 6 6 5 3 3 3 4 5 5 6 6 6 6 6 6 7 7 7 7 6 6 4 3 3
12 13 13 14 15 15 15 15 15 15 15 15 15 15 14 13 10 7 6 6 6 6 5 4 3 3 3 3 4 4 5 5 5 6 6 6 6 7 7 7 6 5 4 3 3
12 12 13 14 14 14 14 14 14 14 14 14 14 14 13 11 9 9 9 9 8 6 5 4 3 3 3 2 3 4 4 5 5 5 6 6 6 7 7 6 6 6 5 4 3
11 11 12 13 14 14 14 14 14 14 14 14 13 13 12 10 10 11 10 10 9 7 4 3 2 2 2 2 2 3 4 4 5 5 5 6 6 7 7 6 6 6 5 4 3
9 10 11 12 14 14 14 14 15 15 14 14 13 13 11 10 10 11 10 10 10 8 5 3 2 2 2 2 2 3 3 4 4 5 5 5 6 7 7 6 6 7 6 5 4
8 9 10 12 14 14 15 15 15 15 14 14 13 12 11 10 10 10 10 9 9 8 7 4 3 2 2 2 2 3 3 4 4 5 5 5 6 6 7 6 6 6 6 5 5
8 8 10 12 14 14 15 15 15 15 14 14 12 11 10 10 10 9 9 8 8 8 7 5 4 2 2 2 2 3 4 4 4 4 4 5 5 6 6 6 6 6 6 6 5
7 7 9 11 13 14 15 15 15 15 14 13 11 10 9 9 9 9 9 8 7 7 6 5 4 3 2 2 2 3 4 4 4 4 4 4 5 5 6 6 6 6 6 6 6
7 7 8 10 12 14 14 14 14 14 13 11 10 10 9 10 10 10 9 8 7 6 6 5 4 4 3 2 2 2 3 4 3 3 2 3 4 5 5 6 6 6 6 6 6
7 7 7 9 12 14 14 13 13 12 11 10 10 10 10 10 10 9 8 8 7 5 5 4 4 4 3 2 1 1 2 2 2 1 1 2 3 4 5 6 6 6 6 5 5
7 7 8 9 12 13 13 12 13 12 9 8 10 10 9 9 8 7 7 7 6 5 4 4 4 4 3 2 1 1 1 1 0 -0 0 1 3 4 5 5 6 7 6 6 5
8 8 8 10 11 12 13 13 13 11 8 7 8 8 8 7 7 6 6 6 5 5 5 5 5 4 3 3 2 1 1 1 -1 -1 -0 1 2 4 4 5 6 7 7 7 6
9 9 9 10 11 12 13 13 12 9 5 6 7 7 7 7 7 6 6 5 5 5 5 5 5 4 4 3 2 1 1 -0 -1 -1 -1 0 1 3 3 4 5 6 7 8 7
9 10 10 11 11 12 13 12 10 6 4 5 5 5 6 6 6 6 6 5 5 4 4 4 4 4 3 3 2 1 0 -1 -1 -1 -0 0 1 2 3 4 5 6 7 7 8
10 11 11 12 12 12 12 10 6 4 4 4 4 4 5 5 5 5 5 4 4 4 4 3 3 2 2 2 1 1 0 -0 -1 -0 0 1 1 2 3 4 4 5 6 7 7
11 12 12 12 12 11 10 7 4 3 4 4 4 4 4 4 4 4 4 4 4 3 3 2 2 1 1 1 1 0 0 -0 -0 -1 -0 0 1 2 3 3 4 4 5 6 6
11 12 12 12 11 10 7 4 3 3 4 3 3 3 3 4 4 4 4 3 3 2 2 1 1 1 1 1 1 0 0 0 -0 -1 -1 -0 1 2 2 3 3 3 4 4 5
10 11 12 11 10 8 5 3 3 3 4 3 3 3 3 3 4 3 3 3 2 1 1 1 1 1 0 0 0 0 0 0 0 -0 -1 -0 0 1 1 2 3 3 3 3 4
9 9 11 10 8 6 4 3 3 3 4 3 3 3 3 3 3 3 3 2 2 1 1 1 1 1 1 0 0 0 0 0 1 0 -0 -0 -0 0 1 2 3 3 3 3 3
8 9 10 8 6 4 3 3 3 3 3 4 4 4 4 4 3 3 2 2 1 1 1 1 0 1 1 1 1 1 0 1 1 1 0 0 -0 -0 1 2 3 3 3 2 2
8 8 9 7 4 3 2 2 2 3 3 4 4 4 4 3 3 2 2 2 1 1 1 1 1 0 0 1 1 1 1 1 1 1 1 0 0 0 1 1 2 3 3 2 2
8 8 7 5 3 2 2 1 2 2 3 3 4 4 4 3 2 2 2 2 2 1 1 1 1 1 1 1 2 2 2 2 1 0 0 0 0 0 0 1 2 2 2 2 2
8 6 4 3 2 2 1 1 1 2 3 3 3 3 3 3 2 2 2 2 2 2 2 2 2 2 2 2 2 3 3 3 2 1 0 0 0 0 0 0 1 2 2 2 2
7 5 3 1 1 1 1 1 1 2 2 2 3 3 3 3 3 2 2 2 2 2 2 2 2 2 3 3 2 2 3 3 3 2 1 1 1 0 -0 -0 1 2 2 2 2
7 5 2 1 1 1 1 1 1 2 2 2 2 2 2 2 3 2 2 2 2 2 2 2 2 2 2 3 3 2 2 3 3 3 2 1 1 0 -0 -0 0 1 2 2 2